Content
SEND FEEDBACK

Daily
Averages
Monthly
Summary
United States of America

ROCK ISLAND, ILLINOIS


Home > North America > United States > Illinois
Elevation: 622 feet     Latitude: 41 34N     Longitude: 090 25W

WEATHER
 
SELECT A DAY
Number of Records: 196,036;   Date Range: 7/1/96 - 11/26/14
 
SHARE

PRINT THIS DATA

[ ← Previous Day ]
WEATHER ALMANAC - JANUARY 31, 2013
[ Next Day → ]
[ °C ]   °F
Weather ElementAverageHighLow
Temperature7.2 °F17.1 °F (1:52 am)-0.4 °F (11:14 pm)
Dewpoint1 °F10.9 °F (1:52 am)-7.6 °F (11:14 pm)
Humidity76 %85 % (8:27 pm)69 % (10:52 pm)
Barometer30.04 in30.34 in (11:52 pm)29.80 in (3:21 am)
Wind Speed22.7 mph28.8 mph (3:52 pm)
Wind Gust36.8 mph (5:14 pm)
Weather ElementAverage
Visibility5.4 mi
Wind DirectionWNW (290.1 °)

Weather ElementTotal
Precipitation---
Heating Degree Days56.7 (Base 65)
Averaged from 69 records on January 31, 2013
WEATHER CONDITIONS BREAKOUT
WIND DIRECTION BREAKOUT
WEATHER BY HOUR - JANUARY 31, 2013
[ °C ]   °F
Local TimeTemperatureDewpointHumidityBarometerVisibilityWind DirectionWind SpeedGust SpeedPrecipitationEventsConditions
12:52 AM14.0 °F10.0 °F84 %29.81 in9.0 miWest (280°)16.1 mphMostly Cloudy
1:52 AM17.1 °F10.9 °F77 %29.83 in10.0 miWest (280°)24.2 mph27.6 mphOvercast
2:52 AM16.0 °F10.0 °F77 %29.84 in10.0 miWNW (290°)18.4 mphOvercast
3:21 AM15.8 °F8.6 °F73 %29.80 in2.5 miWNW (290°)25.3 mph31.1 mphSnowLight Snow
3:27 AM14.0 °F8.6 °F79 %29.80 in1.0 miWNW (290°)25.3 mph34.5 mphSnowLight Snow
3:39 AM12.2 °F6.8 °F79 %29.81 in2.0 miWNW (290°)25.3 mph32.2 mphSnowLight Snow
3:44 AM12.2 °F6.8 °F79 %29.81 in3.0 miWest (280°)20.7 mph32.2 mphRainLight Freezing Rain
3:52 AM12.0 °F5.0 °F73 %29.85 in8.0 miWNW (290°)25.3 mph29.9 mphRainLight Freezing Rain
4:18 AM10.4 °F5.0 °F79 %29.82 in9.0 miWNW (290°)18.4 mphClear
4:52 AM10.9 °F5.0 °F77 %29.88 in10.0 miWest (280°)19.6 mph25.3 mphScattered Clouds
5:05 AM10.4 °F5.0 °F79 %29.84 in10.0 miWNW (290°)19.6 mphMostly Cloudy
5:12 AM10.4 °F3.2 °F73 %29.84 in10.0 miWNW (290°)19.6 mph25.3 mphScattered Clouds
5:52 AM10.0 °F3.9 °F76 %29.89 in10.0 miWNW (290°)15.0 mphClear
6:52 AM9.0 °F3.9 °F80 %29.91 in10.0 miWest (280°)16.1 mphClear
7:44 AM8.6 °F3.2 °F79 %29.89 in7.0 miWest (280°)19.6 mphMostly Cloudy
7:52 AM9.0 °F3.9 °F80 %29.94 in7.0 miWest (280°)19.6 mphMostly Cloudy
8:02 AM8.6 °F3.2 °F79 %29.90 in7.0 miWNW (290°)19.6 mphScattered Clouds
8:10 AM8.6 °F3.2 °F79 %29.90 in6.0 miWNW (290°)17.3 mphHaze
8:30 AM8.6 °F3.2 °F79 %29.91 in1.8 miWNW (290°)18.4 mphSnowLight Snow
8:40 AM8.6 °F3.2 °F79 %29.91 in3.0 miWNW (290°)19.6 mph25.3 mphHaze
8:52 AM9.0 °F3.0 °F77 %29.96 in4.0 miWNW (290°)24.2 mph27.6 mphHaze
9:17 AM8.6 °F1.4 °F73 %29.93 in9.0 miWNW (300°)20.7 mph26.5 mphScattered Clouds
9:52 AM9.0 °F1.9 °F73 %29.99 in10.0 miWNW (290°)19.6 mphClear
10:36 AM10.4 °F3.2 °F73 %29.96 in7.0 miWNW (290°)23.0 mphMostly Cloudy
10:52 AM10.9 °F3.9 °F73 %30.02 in5.0 miWest (280°)23.0 mphHaze
11:16 AM10.4 °F3.2 °F73 %29.98 in1.8 miWest (280°)20.7 mphSnowLight Snow
11:31 AM10.4 °F3.2 °F73 %29.99 in3.0 miWest (280°)21.9 mph27.6 mphSnowLight Snow
11:52 AM10.0 °F3.0 °F73 %30.04 in9.0 miWest (280°)25.3 mph31.1 mphOvercast
12:52 PM10.0 °F3.0 °F73 %30.05 in6.0 miWest (280°)24.2 mphHaze
1:34 PM8.6 °F1.4 °F73 %30.01 in2.0 miWNW (290°)25.3 mph31.1 mphSnowLight Snow
1:43 PM8.6 °F1.4 °F73 %30.01 in5.0 miWNW (290°)26.5 mph31.1 mphHaze
1:52 PM9.0 °F1.9 °F73 %30.06 in3.0 miWest (280°)24.2 mphHaze
2:14 PM8.6 °F1.4 °F73 %30.02 in2.0 miWNW (290°)24.2 mphHaze
2:31 PM8.6 °F1.4 °F73 %30.03 in6.0 miWNW (290°)25.3 mphHaze
2:52 PM8.1 °F1.0 °F73 %30.09 in2.5 miWest (280°)25.3 mph34.5 mphHaze
3:11 PM6.8 °F1.4 °F79 %30.05 in1.5 miWest (280°)25.3 mph32.2 mphSnowLight Snow
3:22 PM6.8 °F-0.4 °F72 %30.06 in2.0 miWest (280°)25.3 mph33.4 mphHaze
3:35 PM6.8 °F1.4 °F79 %30.06 in0.8 miWest (280°)26.5 mph33.4 mphSnowLight Snow
3:42 PM6.8 °F1.4 °F79 %30.07 in0.5 miWNW (290°)25.3 mph32.2 mphSnowSnow
3:52 PM8.1 °F1.0 °F73 %30.12 in0.8 miWest (280°)28.8 mph34.5 mph
4:00 PM6.8 °F1.4 °F79 %30.07 in1.0 miWest (280°)27.6 mph34.5 mphRainLight Freezing Rain
4:18 PM6.8 °F-0.4 °F72 %30.08 in2.5 miWNW (290°)26.5 mph33.4 mphRainLight Freezing Rain
4:27 PM6.8 °F-0.4 °F72 %30.08 in1.8 miWNW (290°)26.5 mph33.4 mphHaze
4:33 PM6.8 °F1.4 °F79 %30.09 in0.8 miWNW (300°)25.3 mphSnowLight Snow
4:52 PM5.0 °F1.0 °F84 %30.15 in0.8 miWest (280°)27.6 mph33.4 mphRainLight Freezing Rain
5:02 PM6.8 °F1.4 °F79 %30.10 in0.2 miWNW (300°)24.2 mph34.5 mphSnowHeavy Snow
5:14 PM5.0 °F-2.2 °F72 %30.10 in0.5 miWNW (290°)26.5 mph36.8 mph
5:17 PM3.2 °F-2.2 °F78 %30.11 in1.0 miWNW (290°)26.5 mph36.8 mph
5:22 PM3.2 °F-2.2 °F78 %30.11 in2.0 miWNW (300°)23.0 mph32.2 mphRainLight Freezing Rain
5:30 PM3.2 °F-2.2 °F78 %30.12 in7.0 miWNW (290°)23.0 mphRainLight Freezing Rain
5:46 PM3.2 °F-2.2 °F78 %30.13 in6.0 miWNW (290°)25.3 mph31.1 mphHaze
5:52 PM3.9 °F-2.0 °F76 %30.19 in5.0 miWNW (290°)24.2 mph33.4 mphHaze
6:01 PM3.2 °F-2.2 °F78 %30.13 in6.0 miWNW (290°)25.3 mph31.1 mphHaze
6:13 PM3.2 °F-2.2 °F78 %30.14 in8.0 miWNW (290°)23.0 mph29.9 mphOvercast
6:41 PM3.2 °F-2.2 °F78 %30.15 in9.0 miWNW (300°)23.0 mphOvercast
6:52 PM3.9 °F-2.9 °F73 %30.21 in8.0 miWNW (300°)25.3 mph34.5 mphOvercast
7:45 PM3.2 °F-4.0 °F72 %30.18 in10.0 miWNW (300°)25.3 mph29.9 mphScattered Clouds
7:52 PM3.0 °F-2.9 °F76 %30.25 in4.0 miWNW (300°)20.7 mph31.1 mphHaze
8:27 PM1.4 °F-2.2 °F85 %30.20 in1.8 miWNW (300°)23.0 mph28.8 mphSnowLight Snow
8:32 PM1.4 °F-2.2 °F85 %30.21 in0.8 miWNW (300°)19.6 mph28.8 mphSnowLight Snow
8:41 PM1.4 °F-4.0 °F78 %30.21 in2.0 miNW (310°)21.9 mph29.9 mphSnowLight Snow
8:52 PM1.9 °F-5.1 °F72 %30.27 in7.0 miWNW (300°)21.9 mph29.9 mphOvercast
9:04 PM1.4 °F-5.8 °F72 %30.21 in9.0 miNW (310°)18.4 mph29.9 mphMostly Cloudy
9:15 PM1.4 °F-5.8 °F72 %30.21 in10.0 miNW (310°)19.6 mph29.9 mphScattered Clouds
9:52 PM1.0 °F-6.0 °F72 %30.29 in10.0 miWNW (300°)21.9 mph27.6 mphScattered Clouds
10:01 PM1.4 °F-5.8 °F72 %30.24 in9.0 miWNW (300°)21.9 mph26.5 mphMostly Cloudy
10:52 PM1.0 °F-7.1 °F69 %30.31 in10.0 miWNW (300°)17.3 mph25.3 mphMostly Cloudy
11:14 PM-0.4 °F-7.6 °F72 %30.27 in10.0 miWNW (300°)20.7 mph25.3 mphScattered Clouds
11:52 PM0.0 °F-7.1 °F72 %30.34 in10.0 miWNW (290°)21.9 mphPartly Cloudy
Hourly data recorded from KDVN, located miles away from Rock Island, Illinois







STORIES FROM OUR PARTNERS